Regional Weather Roundup
Issued by NWS Upton, NY

Current Version | Previous Version | Text Only | Print | Product List | Glossary On
Versions: 1 2 3 4 5 6 7 8 9 10 11 12 13 14 15 16 17 18 19 20 21 22 23 24 25 26 27 28 29 30 31 32 33 34 35 36 37 38 39 40 41 42 43 44 45 46 47 48 49 50
000
ASUS41 KOKX 271209
RWROKX

REGIONAL WEATHER ROUNDUP
NATIONAL WEATHER SERVICE NEW YORK NY
800 AM EDT WED MAY 27 2015

NOTE: "FAIR" INDICATES FEW OR NO CLOUDS BELOW 12,000 FEET WITH NO
SIGNIFICANT WEATHER AND/OR OBSTRUCTIONS TO VISIBILITY.

NYZ071-072-176-178-NJZ106-104-271300-
NEW YORK CITY METRO AREA


CITY           SKY/WX    TMP DP  RH WIND       PRES   REMARKS
CENTRAL PARK   CLOUDY    73  64  73 VRB7      30.20S
LAGUARDIA APRT PTSUNNY   71  63  75 S8        30.17S
KENNEDY INTL   PTSUNNY   65  59  81 S8        30.20R
NEWARK/LIBERTY CLOUDY    73  66  78 S7        30.17S
BRNX BOT. GARD   N/A     72  63  73 CALM      30.19R
TETERBORO      PTSUNNY   73  65  75 S12G29    30.16R
$$

NYZ177-179-078>081-271300-
LONG ISLAND NEW YORK

CITY           SKY/WX    TMP DP  RH WIND       PRES   REMARKS
FARMINGDALE    PTSUNNY   66  61  84 S12       30.20R
ISLIP          PTSUNNY   66  61  84 SW9G18    30.19R
SHIRLEY        CLOUDY    65  60  84 S13       30.21S
WESTHAMPTON    CLOUDY    64  60  87 SW8       30.22S
MONTAUK POINT    N/A     62  58  86 S8G17     30.23R
$$

NYZ052-065-067-271300-
HUDSON VALLEY

CITY           SKY/WX    TMP DP  RH WIND       PRES   REMARKS
WHITE PLAINS   PTSUNNY   68  63  84 SE5       30.18R
NEWBURGH       MOSUNNY   72  66  83 SW7       30.16S
MONTGOMERY     MOSUNNY   71  68  90 SW5       30.14S
POUGHKEEPSIE   MOSUNNY   73  64  73 S3        30.14S
ALBANY         PTSUNNY   73  64  73 S13G22    30.09S
$$

NJZ001-105-106-008-010-013-015-019>022-104-271300-
NEW JERSEY

CITY           SKY/WX    TMP DP  RH WIND       PRES   REMARKS
NEWARK/LIBERTY CLOUDY    73  66  78 S7        30.17S
TETERBORO      PTSUNNY   73  65  75 S12G29    30.16R
CALDWELL       CLOUDY    71  64  78 VRB5      30.17S
MORRISTOWN     CLOUDY    70  66  88 S5        30.17S
SOMERVILLE     CLOUDY    70  65  84 SE3       30.14F
SUSSEX         CLOUDY    70  64  81 SW5       30.17R
ANDOVER          N/A     71  66  84 VRB6      30.16S
TRENTON        CLOUDY    70  66  87 S7        30.16S
MILLVILLE      MOSUNNY   73  68  84 VRB3      30.19S
ATLANTIC CITY  SUNNY     72  65  78 SW10      30.20S
WRIGHTSTOWN    NOT AVBL
TOMS RIVER     MOSUNNY  N/A N/A N/A SW9G16    30.19S
BELMAR         CLOUDY    72  63  73 SW9       30.19S
$$

PAZ047>061-062-071-271300-
EASTERN PENNSYLVANIA

CITY           SKY/WX    TMP DP  RH WIND       PRES   REMARKS
PHILADELPHIA   CLOUDY    74  67  78 S10       30.17S
ALLENTOWN      CLOUDY    73  66  78 SW8       30.15S
SCRANTON       MOSUNNY   75  65  70 CALM      30.13S
$$

CTZ002-004>006-009-010-012-RIZ004-006-007-MAZ004-011-015-271300-
SOUTHERN NEW ENGLAND
 IN CT

CITY           SKY/WX    TMP DP  RH WIND       PRES   REMARKS
BRADLEY INTL   PTSUNNY   71  62  73 S12       30.16R
HARTFORD       PTSUNNY   69  62  78 S9        30.17R
DANBURY        MOSUNNY   70  62  76 SW7       30.18S
WTRBRY/OXFORD  PTSUNNY   66  59  77 S6        30.21R
BRIDGEPORT     MOSUNNY   66  61  84 SW8       30.19R
MERIDEN          N/A     68  61  78 S9        30.18S
NEW HAVEN      PTSUNNY   65  61  87 SE6       30.19S
CHESTER        FAIR      66  63  88 S8        30.21R
GROTON         MOSUNNY   61  57  87 S5        30.21R
WILLIMANTIC    SUNNY     69  61  75 S9        30.19S

 IN RI

CITY           SKY/WX    TMP DP  RH WIND       PRES   REMARKS
PROVIDENCE     PTSUNNY   68  60  75 S9        30.20S
BLOCK ISLAND   PTSUNNY   61  55  82 SW14      30.24R
WESTERLY       CLOUDY    62  58  86 S10       30.22S

 IN MA

CITY           SKY/WX    TMP DP  RH WIND       PRES   REMARKS
BOSTON         PTSUNNY   69  61  75 S13       30.16S
WORCESTER      MOSUNNY   68  61  78 SW9       30.18S
WESTFIELD      PTSUNNY   71  61  70 S9        30.15S
PROVINCETOWN   PTSUNNY   63  55  77 S16G23    30.21S
NANTUCKET      MOSUNNY   62  59  90 S16       30.26S
$$

ANZ330-335-338-340-345-350-353-355-271300-
COASTAL MARINE OBSERVATIONS


STATION/POSITION TIME  SKY/WX   TEMP    WIND        PRES    VSBY  WAVE
                                AIR SEA DIR/SP/G                  HT/PER
                 (UTC)          (F)     (DEG/KT/KT) (MB)    (MI)  (FT/S)
NY HARB ENTRANCE 1150            60 56  200/ 14/ 17 1021.8          3/ 5
4S FIRE IS       1103               56                N/A           4/ 6
20S FIRE ISLAND  1150            60 55  200/ 12/ 14 1022.8          3/ 5
GREAT SOUTH BAY  1130            62 66  230/ 12/ 14   N/A
23SW MTP         1150            58 53  210/ 10/ 12 1023.5          4/ 5
HUDSON CANYON    NOT AVBL
KINGS POINT      1100            65 56  180/  7/  8 1021.2
CENTRAL LI SOUND 1100            59 55  200/  6/  8   N/A
EASTERN LI SOUND 1100            57     180/  6/  6   N/A
ROBBINS REEF     1100            66     170/  8/  8 1020.7
$$


>>>>>>>>>>>>>>>>>>>>>>>>>>>> KEY <<<<<<<<<<<<<<<<<<<<<<<<<<<
>                                                          <
>     SKY/WX - SKY CONDITION/PRESENT WEATHER               <
>     TMP    - TEMPERATURE IN FAHRENHEIT                   <
>     DP     - DEWPOINT IN FAHRENHEIT                      <
>     RH     - RELATIVE HUMIDITY IN PERCENT                <
>     WIND   - DIRECTION AND SPEED IN MPH                  <
>     PRES   - MEAN SEA LEVEL PRESSURE IN INCHES OF HG     <
>     WCI    - WIND CHILL INDEX                            <
>     VSB    - VISIBILITY IN MILES                         <
>     HX     - HEAT INDEX                                  <
>     TC     - TEMPERATURE IN CELSIUS                      <
>     VRB    - VARIABLE WIND DIRECTION                     <
>                                                          <
>>>>>>>>>>>>>>>>>>>>>>>>>>>> KEY <<<<<<<<<<<<<<<<<<<<<<<<<<<




USA.gov is the U.S. government's official web portal to all federal, state and local government web resources and services.